Time,TemperatureF,DewpointF,PressureIn,WindDirection,WindDirectionDegrees,WindSpeedMPH,WindSpeedGustMPH,Humidity,HourlyPrecipIn,Conditions,Clouds,dailyrainin,SoftwareType,DateUTC
2013-07-26 00:00:00,66.5,64.1,29.99,WSW,255,0.0,0.0,92,0.00,,---,0.00,VWS V14.01,2013-07-26 04:00:00,
2013-07-26 00:01:00,63.5,58.0,29.95,North,359,0.0,0.0,82,0.01,,---,0.00,VWS V14.01,2013-07-26 04:01:00,
2013-07-26 00:06:00,63.5,58.0,29.94,North,359,0.0,0.0,82,0.01,,---,0.00,VWS V14.01,2013-07-26 04:06:00,
2013-07-26 00:11:00,63.2,57.8,29.95,North,359,0.0,0.0,83,0.00,,---,0.00,VWS V14.01,2013-07-26 04:11:00,
2013-07-26 00:16:00,63.4,58.1,29.95,North,359,0.0,0.0,83,0.00,,---,0.00,VWS V14.01,2013-07-26 04:16:00,
2013-07-26 00:21:00,63.4,58.2,29.95,North,359,0.0,0.0,83,0.01,,---,0.01,VWS V14.01,2013-07-26 04:21:00,
2013-07-26 00:26:00,63.2,58.0,29.94,North,359,0.0,0.0,83,47.16,,---,0.01,VWS V14.01,2013-07-26 04:26:00,
2013-07-26 00:31:00,63.8,58.6,29.94,North,359,0.0,0.0,83,0.01,,---,0.01,VWS V14.01,2013-07-26 04:31:00,
2013-07-26 00:36:00,63.1,57.9,29.94,North,359,0.0,0.0,83,0.01,,---,0.01,VWS V14.01,2013-07-26 04:36:00,
2013-07-26 00:42:00,63.7,58.7,29.94,North,359,0.0,0.0,84,0.01,,---,0.01,VWS V14.01,2013-07-26 04:42:00,
2013-07-26 00:47:00,63.1,58.3,29.94,North,359,0.0,0.0,84,47.19,,---,0.01,VWS V14.01,2013-07-26 04:47:00,
2013-07-26 00:52:00,63.2,58.4,29.94,North,359,0.0,0.0,84,71.76,,---,0.01,VWS V14.01,2013-07-26 04:52:00,
2013-07-26 00:57:00,63.8,59.1,29.94,North,359,0.0,0.0,85,0.01,,---,0.01,VWS V14.01,2013-07-26 04:57:00,
2013-07-26 01:02:00,63.1,58.5,29.94,North,359,0.0,0.0,85,0.01,,---,0.01,VWS V14.01,2013-07-26 05:02:00,
2013-07-26 01:07:00,63.9,59.4,29.94,North,359,0.0,0.0,85,0.01,,---,0.01,VWS V14.01,2013-07-26 05:07:00,
2013-07-26 01:11:00,63.1,58.4,29.94,North,359,0.0,0.0,85,0.01,,---,0.01,VWS V14.01,2013-07-26 05:11:00,
2013-07-26 01:17:00,63.3,58.5,29.94,North,359,0.0,0.0,84,0.01,,---,0.01,VWS V14.01,2013-07-26 05:17:00,
2013-07-26 01:22:00,63.5,58.8,29.94,North,359,0.0,0.0,84,0.00,,---,0.01,VWS V14.01,2013-07-26 05:22:00,
2013-07-26 01:27:00,63.5,59.1,29.94,North,359,0.0,0.0,86,0.00,,---,0.01,VWS V14.01,2013-07-26 05:27:00,
2013-07-26 01:32:00,63.4,59.2,29.93,North,359,0.0,0.0,86,0.00,,---,0.01,VWS V14.01,2013-07-26 05:32:00,
2013-07-26 01:37:00,62.8,58.6,29.93,North,359,0.0,0.0,86,0.00,,---,0.01,VWS V14.01,2013-07-26 05:37:00,
2013-07-26 01:42:00,63.0,58.8,29.93,North,359,0.0,0.0,86,0.00,,---,0.01,VWS V14.01,2013-07-26 05:42:00,
2013-07-26 01:47:00,63.0,58.6,29.92,North,359,0.0,0.0,86,0.00,,---,0.01,VWS V14.01,2013-07-26 05:47:00,
2013-07-26 01:52:00,63.5,59.0,29.92,North,359,0.0,0.0,85,0.00,,---,0.01,VWS V14.01,2013-07-26 05:52:00,
2013-07-26 01:57:00,62.8,58.3,29.92,North,359,0.0,0.0,85,0.00,,---,0.01,VWS V14.01,2013-07-26 05:57:00,
2013-07-26 02:02:00,63.0,58.3,29.92,North,359,0.0,0.0,85,0.00,,---,0.01,VWS V14.01,2013-07-26 06:02:00,
2013-07-26 02:07:00,62.9,58.3,29.92,North,359,0.0,0.0,85,47.22,,---,0.02,VWS V14.01,2013-07-26 06:07:00,
2013-07-26 02:12:00,62.5,57.8,29.92,North,359,0.0,0.0,84,0.01,,---,0.02,VWS V14.01,2013-07-26 06:12:00,
2013-07-26 02:17:00,62.4,57.8,29.92,North,359,0.0,0.0,85,0.01,,---,0.02,VWS V14.01,2013-07-26 06:17:00,
2013-07-26 02:22:00,62.4,57.7,29.92,North,359,0.0,0.0,84,0.01,,---,0.02,VWS V14.01,2013-07-26 06:22:00,
2013-07-26 02:27:00,63.0,58.4,29.92,North,359,0.0,0.0,85,0.00,,---,0.02,VWS V14.01,2013-07-26 06:27:00,
2013-07-26 02:32:00,63.4,58.7,29.92,North,359,0.0,127.3,85,0.01,,---,0.02,VWS V14.01,2013-07-26 06:32:00,
2013-07-26 02:37:00,63.4,58.7,29.92,North,359,0.0,0.0,85,0.01,,---,0.02,VWS V14.01,2013-07-26 06:37:00,
2013-07-26 02:42:00,62.9,58.3,29.92,North,359,0.0,0.0,85,13.69,,---,0.02,VWS V14.01,2013-07-26 06:42:00,
2013-07-26 02:47:00,63.1,58.4,29.92,North,359,0.0,0.0,84,0.01,,---,0.02,VWS V14.01,2013-07-26 06:47:00,
2013-07-26 02:52:00,62.9,58.3,29.92,North,359,0.0,0.0,85,0.01,,---,0.02,VWS V14.01,2013-07-26 06:52:00,
2013-07-26 02:57:00,62.3,57.6,29.92,North,359,0.0,0.0,85,0.01,,---,0.02,VWS V14.01,2013-07-26 06:57:00,
2013-07-26 03:02:00,62.5,57.9,29.92,North,359,0.0,0.0,85,0.01,,---,0.02,VWS V14.01,2013-07-26 07:02:00,
2013-07-26 03:07:00,63.8,59.2,29.92,North,359,0.0,0.0,85,0.00,,---,0.02,VWS V14.01,2013-07-26 07:07:00,
2013-07-26 03:12:00,63.3,58.7,29.92,North,359,0.0,0.0,85,0.00,,---,0.02,VWS V14.01,2013-07-26 07:12:00,
2013-07-26 03:17:00,63.1,58.6,29.92,North,359,0.0,0.0,85,0.00,,---,0.02,VWS V14.01,2013-07-26 07:17:00,
2013-07-26 03:22:00,62.8,58.4,29.92,North,359,0.0,0.0,85,0.00,,---,0.02,VWS V14.01,2013-07-26 07:22:00,
2013-07-26 03:27:00,62.8,58.5,29.92,North,359,0.0,0.0,86,0.00,,---,0.02,VWS V14.01,2013-07-26 07:27:00,
2013-07-26 03:32:00,63.4,59.1,29.92,North,359,0.0,0.0,86,0.00,,---,0.02,VWS V14.01,2013-07-26 07:32:00,
2013-07-26 03:37:00,63.4,58.9,29.92,North,359,0.0,0.0,85,0.00,,---,0.02,VWS V14.01,2013-07-26 07:37:00,
2013-07-26 03:42:00,62.5,58.0,29.91,North,359,0.0,0.0,85,54.98,,---,0.02,VWS V14.01,2013-07-26 07:42:00,
2013-07-26 03:47:00,62.9,58.3,29.92,North,359,0.0,0.0,85,0.00,,---,0.02,VWS V14.01,2013-07-26 07:47:00,
2013-07-26 03:52:00,63.1,58.1,29.92,North,359,0.0,0.0,84,0.00,,---,0.02,VWS V14.01,2013-07-26 07:52:00,
2013-07-26 03:56:00,62.8,58.0,29.92,North,359,0.0,0.0,84,0.00,,---,0.02,VWS V14.01,2013-07-26 07:56:00,
2013-07-26 04:02:00,63.2,58.1,29.92,North,359,0.0,0.0,84,0.00,,---,0.02,VWS V14.01,2013-07-26 08:02:00,
2013-07-26 04:07:00,63.7,58.5,29.92,North,359,0.0,0.0,83,0.00,,---,0.02,VWS V14.01,2013-07-26 08:07:00,
2013-07-26 04:12:00,63.0,57.8,29.92,North,359,0.0,0.0,83,0.00,,---,0.02,VWS V14.01,2013-07-26 08:12:00,
2013-07-26 04:17:00,62.9,57.7,29.92,North,359,0.0,0.0,83,54.98,,---,0.02,VWS V14.01,2013-07-26 08:17:00,
2013-07-26 04:22:00,63.1,57.8,29.92,North,359,0.0,0.0,83,0.00,,---,0.02,VWS V14.01,2013-07-26 08:22:00,
2013-07-26 04:27:00,63.3,58.0,29.92,North,359,0.0,0.0,83,0.00,,---,0.02,VWS V14.01,2013-07-26 08:27:00,
2013-07-26 04:32:00,62.6,57.3,29.92,North,359,0.0,0.0,83,0.00,,---,0.02,VWS V14.01,2013-07-26 08:32:00,
2013-07-26 04:37:00,63.3,57.8,29.92,North,359,0.0,0.0,82,0.01,,---,0.03,VWS V14.01,2013-07-26 08:37:00,
2013-07-26 04:42:00,63.0,57.6,29.92,North,359,0.0,0.0,82,0.01,,---,0.03,VWS V14.01,2013-07-26 08:42:00,
2013-07-26 04:47:00,63.1,57.6,29.92,North,359,0.0,0.0,82,0.01,,---,0.03,VWS V14.01,2013-07-26 08:47:00,
2013-07-26 04:52:00,63.0,57.6,29.92,North,359,0.0,0.0,82,0.01,,---,0.03,VWS V14.01,2013-07-26 08:52:00,
2013-07-26 04:57:00,62.8,57.2,29.92,North,359,0.0,0.0,82,0.01,,---,0.03,VWS V14.01,2013-07-26 08:57:00,
2013-07-26 05:02:00,63.1,57.6,29.92,North,359,0.0,0.0,82,0.01,,---,0.03,VWS V14.01,2013-07-26 09:02:00,
2013-07-26 05:07:00,63.2,57.7,29.92,North,359,0.0,0.0,82,0.01,,---,0.03,VWS V14.01,2013-07-26 09:07:00,
2013-07-26 05:12:00,63.2,57.7,29.92,North,359,0.0,0.0,82,0.01,,---,0.03,VWS V14.01,2013-07-26 09:12:00,
2013-07-26 05:17:00,11.8,7.4,29.92,North,359,0.0,0.0,82,0.01,,---,0.03,VWS V14.01,2013-07-26 09:17:00,
2013-07-26 05:22:00,63.2,57.8,29.92,North,359,0.0,0.0,83,0.01,,---,0.03,VWS V14.01,2013-07-26 09:22:00,
2013-07-26 05:27:00,63.6,58.2,29.92,North,359,0.0,0.0,82,0.01,,---,0.03,VWS V14.01,2013-07-26 09:27:00,
2013-07-26 05:32:00,63.1,57.6,29.92,North,359,0.0,0.0,82,0.01,,---,0.03,VWS V14.01,2013-07-26 09:32:00,
2013-07-26 05:37:00,63.5,58.0,29.92,North,359,0.0,0.0,82,0.00,,---,0.03,VWS V14.01,2013-07-26 09:37:00,
2013-07-26 05:42:00,63.5,58.0,29.93,North,359,0.0,0.0,82,0.00,,---,0.03,VWS V14.01,2013-07-26 09:42:00,
2013-07-26 05:47:00,63.4,57.9,29.93,North,359,0.0,0.0,82,0.00,,---,0.03,VWS V14.01,2013-07-26 09:47:00,
2013-07-26 05:52:00,63.3,57.7,29.93,North,359,0.0,0.0,82,0.00,,---,0.03,VWS V14.01,2013-07-26 09:52:00,
2013-07-26 05:57:00,63.4,57.7,29.93,North,359,0.0,0.0,82,0.00,,---,0.03,VWS V14.01,2013-07-26 09:57:00,
2013-07-26 06:02:00,64.2,58.7,29.93,North,359,0.0,0.0,82,0.00,,---,0.03,VWS V14.01,2013-07-26 10:02:00,
2013-07-26 06:07:00,63.4,58.0,29.93,North,359,0.0,0.0,83,0.00,,---,0.03,VWS V14.01,2013-07-26 10:07:00,
2013-07-26 06:12:00,63.4,58.1,29.92,North,359,0.0,0.0,83,0.00,,---,0.03,VWS V14.01,2013-07-26 10:12:00,
2013-07-26 06:17:00,63.5,58.4,29.92,North,359,0.0,0.0,84,0.00,,---,0.03,VWS V14.01,2013-07-26 10:17:00,
2013-07-26 06:22:00,63.7,58.7,29.93,North,359,0.0,0.0,84,0.00,,---,0.03,VWS V14.01,2013-07-26 10:22:00,
2013-07-26 06:27:00,63.3,58.1,29.93,North,359,0.0,0.0,83,0.00,,---,0.03,VWS V14.01,2013-07-26 10:27:00,
2013-07-26 06:32:00,63.5,58.0,29.93,North,359,0.0,0.0,82,0.00,,---,0.03,VWS V14.01,2013-07-26 10:32:00,
2013-07-26 06:37:00,63.7,58.1,29.93,North,359,0.0,0.0,82,0.00,,---,0.03,VWS V14.01,2013-07-26 10:37:00,
2013-07-26 06:42:00,63.7,57.9,29.93,North,359,0.0,0.0,82,0.00,,---,0.03,VWS V14.01,2013-07-26 10:42:00,
2013-07-26 06:47:00,64.1,58.2,29.93,North,359,0.0,0.0,81,0.00,,---,0.03,VWS V14.01,2013-07-26 10:47:00,
2013-07-26 06:52:00,63.8,57.7,29.93,North,359,0.0,0.0,81,0.00,,---,0.03,VWS V14.01,2013-07-26 10:52:00,
2013-07-26 06:57:00,63.8,57.8,29.93,North,359,0.0,0.0,81,0.00,,---,0.03,VWS V14.01,2013-07-26 10:57:00,
2013-07-26 07:02:00,64.1,58.0,29.93,North,359,0.0,0.0,80,0.00,,---,0.03,VWS V14.01,2013-07-26 11:02:00,
2013-07-26 07:07:00,63.9,57.8,29.93,North,359,0.0,0.0,81,0.00,,---,0.03,VWS V14.01,2013-07-26 11:07:00,
2013-07-26 07:12:00,63.9,57.7,29.93,North,359,0.0,0.0,80,0.00,,---,0.03,VWS V14.01,2013-07-26 11:12:00,
2013-07-26 07:17:00,64.5,58.2,29.93,North,359,0.0,0.0,80,0.00,,---,0.03,VWS V14.01,2013-07-26 11:17:00,
2013-07-26 07:22:00,64.3,58.0,29.94,North,359,0.0,0.0,80,0.00,,---,0.03,VWS V14.01,2013-07-26 11:22:00,
2013-07-26 07:27:00,64.4,58.3,29.94,North,359,0.0,0.0,81,0.00,,---,0.03,VWS V14.01,2013-07-26 11:27:00,
2013-07-26 07:32:00,63.8,57.4,29.94,North,359,0.0,0.0,80,0.00,,---,0.03,VWS V14.01,2013-07-26 11:32:00,
2013-07-26 07:37:00,64.9,58.6,29.94,North,359,0.0,0.0,80,0.00,,---,0.03,VWS V14.01,2013-07-26 11:37:00,
2013-07-26 07:42:00,63.9,57.4,29.94,North,359,0.0,0.0,79,47.26,,---,0.03,VWS V14.01,2013-07-26 11:42:00,
2013-07-26 07:47:00,64.2,57.8,29.94,North,359,0.0,0.0,80,0.00,,---,0.03,VWS V14.01,2013-07-26 11:47:00,
2013-07-26 07:52:00,64.1,57.9,29.95,North,359,0.0,0.0,80,0.00,,---,0.03,VWS V14.01,2013-07-26 11:52:00,
2013-07-26 07:57:00,64.8,58.6,29.94,North,359,0.0,0.0,80,0.00,,---,0.03,VWS V14.01,2013-07-26 11:57:00,
2013-07-26 08:02:00,64.8,58.5,29.95,North,359,0.0,0.0,80,0.00,,---,0.03,VWS V14.01,2013-07-26 12:02:00,
2013-07-26 08:07:00,65.0,57.7,29.95,North,359,0.0,0.0,77,0.00,,---,0.03,VWS V14.01,2013-07-26 12:07:00,
2013-07-26 08:12:00,66.0,58.6,29.94,North,359,0.0,0.0,77,0.00,,---,0.03,VWS V14.01,2013-07-26 12:12:00,
2013-07-26 08:17:00,66.3,58.0,29.94,North,1,0.0,0.0,75,47.27,,---,0.03,VWS V14.01,2013-07-26 12:17:00,
2013-07-26 08:22:00,66.7,58.6,29.94,North,1,0.0,0.0,75,0.01,,---,0.04,VWS V14.01,2013-07-26 12:22:00,
2013-07-26 08:27:00,66.9,59.0,29.94,North,1,0.0,0.0,76,0.01,,---,0.04,VWS V14.01,2013-07-26 12:27:00,
2013-07-26 08:32:00,65.9,57.9,29.95,North,359,0.0,0.0,75,0.01,,---,0.04,VWS V14.01,2013-07-26 12:32:00,
2013-07-26 08:37:00,66.4,58.2,29.95,North,359,0.0,0.0,75,0.01,,---,0.04,VWS V14.01,2013-07-26 12:37:00,
2013-07-26 08:42:00,65.7,57.3,29.95,North,359,0.0,0.0,74,0.01,,---,0.04,VWS V14.01,2013-07-26 12:42:00,
2013-07-26 08:47:00,66.3,57.9,29.95,North,359,0.0,0.0,74,0.01,,---,0.04,VWS V14.01,2013-07-26 12:47:00,
2013-07-26 08:52:00,66.4,58.3,29.96,North,359,0.0,0.0,75,0.01,,---,0.04,VWS V14.01,2013-07-26 12:52:00,
2013-07-26 08:57:00,66.3,57.4,29.96,North,359,0.0,0.0,73,0.01,,---,0.04,VWS V14.01,2013-07-26 12:57:00,
2013-07-26 09:02:00,65.7,56.9,29.96,North,359,0.0,0.0,73,0.01,,---,0.04,VWS V14.01,2013-07-26 13:02:00,
2013-07-26 09:07:00,66.3,57.8,29.95,North,359,0.0,0.0,74,0.01,,---,0.04,VWS V14.01,2013-07-26 13:07:00,
2013-07-26 09:12:00,67.3,57.6,29.95,North,359,0.0,0.0,71,0.01,,---,0.04,VWS V14.01,2013-07-26 13:12:00,
2013-07-26 09:17:00,66.4,57.5,29.95,North,359,0.0,0.0,73,47.21,,---,0.04,VWS V14.01,2013-07-26 13:17:00,
2013-07-26 09:22:00,66.9,57.4,29.95,North,359,0.0,0.0,72,0.00,,---,0.04,VWS V14.01,2013-07-26 13:22:00,
2013-07-26 09:27:00,68.1,57.9,29.95,North,359,0.0,0.0,70,0.00,,---,0.04,VWS V14.01,2013-07-26 13:27:00,
2013-07-26 09:32:00,67.1,57.2,29.96,North,359,0.0,0.0,70,0.00,,---,0.04,VWS V14.01,2013-07-26 13:32:00,
2013-07-26 09:37:00,67.0,57.1,29.96,North,359,0.0,0.0,71,0.00,,---,0.04,VWS V14.01,2013-07-26 13:37:00,
2013-07-26 09:42:00,67.7,58.2,29.96,North,359,0.0,0.0,72,0.00,,---,0.04,VWS V14.01,2013-07-26 13:42:00,
2013-07-26 09:47:00,67.3,57.1,29.96,North,359,0.0,0.0,70,0.00,,---,0.04,VWS V14.01,2013-07-26 13:47:00,
2013-07-26 09:52:00,68.6,58.4,29.96,North,359,0.0,0.0,70,0.00,,---,0.04,VWS V14.01,2013-07-26 13:52:00,
2013-07-26 09:57:00,66.9,56.8,29.96,North,359,0.0,0.0,70,0.00,,---,0.04,VWS V14.01,2013-07-26 13:57:00,
2013-07-26 10:02:00,67.9,58.0,29.96,North,359,0.0,0.0,71,0.00,,---,0.04,VWS V14.01,2013-07-26 14:02:00,
2013-07-26 10:07:00,67.9,57.2,29.96,North,359,0.0,0.0,69,0.00,,---,0.04,VWS V14.01,2013-07-26 14:07:00,
2013-07-26 10:12:00,67.0,57.0,29.97,North,359,0.0,10.3,70,0.00,,---,0.04,VWS V14.01,2013-07-26 14:12:00,
2013-07-26 10:17:00,67.5,56.7,29.97,North,359,0.0,0.0,68,47.29,,---,0.04,VWS V14.01,2013-07-26 14:17:00,
2013-07-26 10:22:00,68.4,58.6,29.97,North,359,0.0,0.0,71,0.00,,---,0.04,VWS V14.01,2013-07-26 14:22:00,
2013-07-26 10:27:00,67.2,56.4,29.97,North,359,0.0,0.0,68,0.00,,---,0.04,VWS V14.01,2013-07-26 14:27:00,
2013-07-26 10:32:00,67.9,58.2,29.97,North,359,0.0,0.0,71,0.00,,---,0.04,VWS V14.01,2013-07-26 14:32:00,
2013-07-26 10:37:00,68.4,58.4,29.97,North,359,0.0,0.0,70,0.00,,---,0.04,VWS V14.01,2013-07-26 14:37:00,
2013-07-26 10:42:00,67.4,56.7,29.97,North,359,0.0,0.0,68,0.00,,---,0.04,VWS V14.01,2013-07-26 14:42:00,
2013-07-26 10:47:00,68.4,57.8,29.97,North,359,0.0,0.0,69,0.00,,---,0.04,VWS V14.01,2013-07-26 14:47:00,
2013-07-26 10:52:00,68.5,57.4,29.97,North,359,0.0,0.0,68,47.25,,---,0.04,VWS V14.01,2013-07-26 14:52:00,
2013-07-26 10:57:00,67.7,56.7,29.97,North,359,0.0,0.0,68,0.00,,---,0.04,VWS V14.01,2013-07-26 14:57:00,
2013-07-26 11:02:00,68.3,57.4,29.97,North,359,0.0,0.0,68,0.00,,---,0.04,VWS V14.01,2013-07-26 15:02:00,
2013-07-26 11:07:00,68.9,58.0,29.97,North,359,0.0,0.0,68,0.01,,---,0.05,VWS V14.01,2013-07-26 15:07:00,
2013-07-26 11:12:00,68.3,57.8,29.97,North,359,0.0,0.0,69,0.01,,---,0.05,VWS V14.01,2013-07-26 15:12:00,
2013-07-26 11:17:00,68.7,58.0,29.97,North,359,0.0,0.0,69,0.01,,---,0.05,VWS V14.01,2013-07-26 15:17:00,
2013-07-26 11:22:00,68.3,57.6,29.97,North,359,0.0,0.0,69,0.01,,---,0.05,VWS V14.01,2013-07-26 15:22:00,
2013-07-26 11:27:00,68.4,57.2,29.97,North,359,0.0,0.0,67,0.01,,---,0.05,VWS V14.01,2013-07-26 15:27:00,
2013-07-26 11:32:00,69.2,58.4,29.96,North,359,0.0,0.0,68,0.01,,---,0.05,VWS V14.01,2013-07-26 15:32:00,
2013-07-26 11:37:00,68.7,57.3,29.97,North,359,0.0,0.0,67,0.01,,---,0.05,VWS V14.01,2013-07-26 15:37:00,
2013-07-26 11:42:00,69.1,57.6,29.96,North,359,0.0,0.0,67,0.01,,---,0.05,VWS V14.01,2013-07-26 15:42:00,
2013-07-26 11:47:00,68.4,56.9,29.96,North,359,0.0,0.0,67,0.01,,---,0.05,VWS V14.01,2013-07-26 15:47:00,
2013-07-26 11:52:00,68.8,57.3,29.97,North,359,0.0,0.0,67,47.27,,---,0.05,VWS V14.01,2013-07-26 15:52:00,
2013-07-26 11:57:00,69.9,57.4,29.97,North,359,0.0,0.0,65,0.01,,---,0.05,VWS V14.01,2013-07-26 15:57:00,
2013-07-26 12:02:00,68.6,56.7,29.96,North,359,0.0,0.0,66,0.01,,---,0.05,VWS V14.01,2013-07-26 16:02:00,
2013-07-26 12:07:00,70.3,57.7,29.96,North,359,0.0,0.0,64,0.00,,---,0.05,VWS V14.01,2013-07-26 16:07:00,
2013-07-26 12:12:00,69.9,57.7,29.96,North,359,0.0,0.0,65,0.00,,---,0.05,VWS V14.01,2013-07-26 16:12:00,
2013-07-26 12:17:00,70.3,58.0,29.96,North,359,0.0,0.0,65,0.00,,---,0.05,VWS V14.01,2013-07-26 16:17:00,
2013-07-26 12:22:00,70.5,58.4,29.96,North,359,0.0,0.0,66,0.00,,---,0.05,VWS V14.01,2013-07-26 16:22:00,
2013-07-26 12:27:00,71.0,57.0,29.96,North,359,0.0,0.0,61,0.00,,---,0.05,VWS V14.01,2013-07-26 16:27:00,
2013-07-26 12:32:00,70.5,57.2,29.96,North,359,0.0,0.0,63,0.00,,---,0.05,VWS V14.01,2013-07-26 16:32:00,
2013-07-26 12:37:00,71.5,58.6,29.96,North,359,0.0,0.0,64,0.00,,---,0.05,VWS V14.01,2013-07-26 16:37:00,
2013-07-26 12:42:00,71.6,58.4,29.96,North,359,0.0,0.0,63,0.00,,---,0.05,VWS V14.01,2013-07-26 16:42:00,
2013-07-26 12:47:00,71.4,57.5,29.96,North,359,0.0,0.0,62,0.00,,---,0.05,VWS V14.01,2013-07-26 16:47:00,
2013-07-26 12:52:00,72.1,57.7,29.95,North,359,0.0,0.0,60,47.26,,---,0.05,VWS V14.01,2013-07-26 16:52:00,
2013-07-26 12:57:00,71.7,57.5,29.95,North,359,0.0,0.0,61,0.00,,---,0.05,VWS V14.01,2013-07-26 16:57:00,
2013-07-26 13:02:00,72.1,56.4,29.95,North,359,0.0,0.0,58,0.00,,---,0.05,VWS V14.01,2013-07-26 17:02:00,
2013-07-26 13:07:00,71.9,57.4,29.95,North,359,0.0,5.5,60,0.00,,---,0.05,VWS V14.01,2013-07-26 17:07:00,
2013-07-26 13:12:00,73.1,58.5,29.95,North,359,0.0,0.0,60,0.00,,---,0.05,VWS V14.01,2013-07-26 17:12:00,
2013-07-26 13:17:00,73.4,58.0,29.95,North,359,0.0,0.0,59,0.00,,---,0.05,VWS V14.01,2013-07-26 17:17:00,
2013-07-26 13:22:00,73.4,57.0,29.95,North,359,0.0,0.0,56,0.00,,---,0.05,VWS V14.01,2013-07-26 17:22:00,
2013-07-26 13:27:00,73.0,56.8,29.95,North,359,0.0,0.0,57,47.24,,---,0.05,VWS V14.01,2013-07-26 17:27:00,
2013-07-26 13:32:00,73.6,56.3,29.95,North,359,0.0,0.0,55,0.00,,---,0.05,VWS V14.01,2013-07-26 17:32:00,
2013-07-26 13:37:00,75.0,58.3,29.95,North,359,0.6,5.9,56,0.00,,---,0.05,VWS V14.01,2013-07-26 17:37:00,
2013-07-26 13:42:00,74.2,57.2,29.95,North,359,0.0,8.8,55,0.00,,---,0.05,VWS V14.01,2013-07-26 17:42:00,
2013-07-26 13:47:00,74.4,57.5,29.95,North,359,0.0,0.0,56,0.00,,---,0.05,VWS V14.01,2013-07-26 17:47:00,
2013-07-26 13:52:00,74.3,57.4,29.95,North,359,0.0,0.0,56,0.00,,---,0.05,VWS V14.01,2013-07-26 17:52:00,
2013-07-26 13:57:00,74.0,56.9,29.95,NNE,30,2.7,2.7,55,0.00,,---,0.05,VWS V14.01,2013-07-26 17:57:00,
2013-07-26 14:02:00,74.9,59.3,29.95,North,359,0.0,0.0,58,0.00,,---,0.05,VWS V14.01,2013-07-26 18:02:00,
2013-07-26 14:07:00,74.4,60.4,29.95,North,359,0.0,0.0,62,0.00,,---,0.05,VWS V14.01,2013-07-26 18:07:00,
2013-07-26 14:12:00,73.5,56.9,29.95,North,359,0.0,0.0,56,0.00,,---,0.05,VWS V14.01,2013-07-26 18:12:00,
2013-07-26 14:17:00,73.3,56.6,29.95,North,350,0.0,0.0,56,0.00,,---,0.05,VWS V14.01,2013-07-26 18:17:00,
2013-07-26 14:22:00,75.1,57.1,29.95,North,350,0.0,0.0,54,0.00,,---,0.05,VWS V14.01,2013-07-26 18:22:00,
2013-07-26 14:27:00,76.2,58.0,29.95,North,350,0.0,0.0,53,47.26,,---,0.05,VWS V14.01,2013-07-26 18:27:00,
2013-07-26 14:32:00,75.9,54.4,29.95,North,350,0.0,0.0,47,0.00,,---,0.05,VWS V14.01,2013-07-26 18:32:00,
2013-07-26 14:37:00,75.3,54.4,29.95,North,350,0.0,0.0,48,0.00,,---,0.05,VWS V14.01,2013-07-26 18:37:00,
2013-07-26 14:42:00,77.1,55.5,29.95,North,0,0.4,9.8,47,0.00,,---,0.05,VWS V14.01,2013-07-26 18:42:00,
2013-07-26 14:47:00,76.2,53.0,29.95,NNE,13,7.9,9.2,44,0.00,,---,0.05,VWS V14.01,2013-07-26 18:47:00,
2013-07-26 14:52:00,77.0,53.8,29.95,NE,52,0.0,0.0,44,47.23,,---,0.05,VWS V14.01,2013-07-26 18:52:00,
2013-07-26 14:57:00,77.3,55.8,29.94,NE,52,0.0,0.0,47,0.00,,---,0.05,VWS V14.01,2013-07-26 18:57:00,
2013-07-26 15:02:00,77.1,54.3,29.95,NE,52,0.0,0.0,45,0.00,,---,0.05,VWS V14.01,2013-07-26 19:02:00,
2013-07-26 15:07:00,76.1,53.7,29.95,NE,52,0.0,0.0,46,0.00,,---,0.05,VWS V14.01,2013-07-26 19:07:00,
2013-07-26 15:12:00,77.5,56.1,29.95,NE,52,0.0,0.0,48,0.00,,---,0.05,VWS V14.01,2013-07-26 19:12:00,
2013-07-26 15:17:00,76.6,54.1,29.95,NE,52,0.0,0.0,46,0.00,,---,0.05,VWS V14.01,2013-07-26 19:17:00,
2013-07-26 15:22:00,76.0,54.0,29.95,NE,52,0.0,0.0,46,0.00,,---,0.05,VWS V14.01,2013-07-26 19:22:00,
2013-07-26 15:27:00,77.5,55.6,29.94,NE,52,0.0,0.0,47,47.22,,---,0.05,VWS V14.01,2013-07-26 19:27:00,
2013-07-26 15:32:00,77.7,55.2,29.94,NE,52,0.0,0.0,46,0.00,,---,0.05,VWS V14.01,2013-07-26 19:32:00,
2013-07-26 15:37:00,78.2,55.8,29.94,North,359,1.4,3.6,46,0.00,,---,0.05,VWS V14.01,2013-07-26 19:37:00,
2013-07-26 15:42:00,78.7,55.6,29.95,North,359,0.0,0.0,45,0.00,,---,0.05,VWS V14.01,2013-07-26 19:42:00,
2013-07-26 15:47:00,78.9,55.5,29.94,North,359,0.0,0.0,45,0.00,,---,0.05,VWS V14.01,2013-07-26 19:47:00,
2013-07-26 15:52:00,78.1,56.0,29.94,North,359,0.0,0.0,46,47.24,,---,0.05,VWS V14.01,2013-07-26 19:52:00,
2013-07-26 15:57:00,78.3,56.0,29.94,North,359,0.0,0.0,46,0.00,,---,0.05,VWS V14.01,2013-07-26 19:57:00,
2013-07-26 16:02:00,76.8,54.4,29.94,North,359,0.0,0.0,46,0.00,,---,0.05,VWS V14.01,2013-07-26 20:02:00,
2013-07-26 16:07:00,77.8,56.1,29.94,North,359,0.0,0.0,47,0.00,,---,0.05,VWS V14.01,2013-07-26 20:07:00,
2013-07-26 16:12:00,76.6,55.1,29.94,North,359,0.0,0.0,47,0.00,,---,0.05,VWS V14.01,2013-07-26 20:12:00,
2013-07-26 16:17:00,77.3,56.7,29.94,North,359,0.0,0.0,49,0.00,,---,0.05,VWS V14.01,2013-07-26 20:17:00,
2013-07-26 16:22:00,77.5,56.3,29.94,North,359,0.0,0.0,48,0.00,,---,0.05,VWS V14.01,2013-07-26 20:22:00,
2013-07-26 16:27:00,76.9,56.0,29.94,North,359,0.0,0.0,48,0.00,,---,0.05,VWS V14.01,2013-07-26 20:27:00,
2013-07-26 16:32:00,77.1,56.7,29.94,North,359,0.0,0.0,49,0.00,,---,0.05,VWS V14.01,2013-07-26 20:32:00,
2013-07-26 16:37:00,76.3,56.8,29.94,North,359,0.0,0.0,51,0.00,,---,0.05,VWS V14.01,2013-07-26 20:37:00,
2013-07-26 16:42:00,77.7,58.2,29.94,North,359,0.0,0.0,51,0.00,,---,0.05,VWS V14.01,2013-07-26 20:42:00,
2013-07-26 16:47:00,76.2,57.2,29.95,North,359,0.0,0.0,52,0.00,,---,0.05,VWS V14.01,2013-07-26 20:47:00,
2013-07-26 16:52:00,77.7,58.3,29.95,North,359,0.0,0.0,51,47.22,,---,0.05,VWS V14.01,2013-07-26 20:52:00,
2013-07-26 16:57:00,77.7,58.2,29.95,North,359,0.0,0.0,51,0.00,,---,0.05,VWS V14.01,2013-07-26 20:57:00,
2013-07-26 17:02:00,76.1,59.1,29.95,North,359,0.0,0.0,56,0.00,,---,0.05,VWS V14.01,2013-07-26 21:02:00,
2013-07-26 17:07:00,75.9,60.3,29.94,North,359,0.0,0.0,58,0.00,,---,0.05,VWS V14.01,2013-07-26 21:07:00,
2013-07-26 17:12:00,75.3,60.5,29.94,North,359,0.0,0.0,60,0.00,,---,0.05,VWS V14.01,2013-07-26 21:12:00,
2013-07-26 17:17:00,75.2,60.6,29.94,North,359,0.0,0.0,60,0.00,,---,0.05,VWS V14.01,2013-07-26 21:17:00,
2013-07-26 17:22:00,75.9,61.3,29.94,North,359,0.0,0.0,61,0.00,,---,0.05,VWS V14.01,2013-07-26 21:22:00,
2013-07-26 17:27:00,76.1,61.9,29.94,North,359,0.0,11.8,61,0.00,,---,0.05,VWS V14.01,2013-07-26 21:27:00,
2013-07-26 17:32:00,75.3,61.1,29.94,North,359,0.0,0.0,61,0.00,,---,0.05,VWS V14.01,2013-07-26 21:32:00,
2013-07-26 17:37:00,76.5,62.4,29.94,North,359,0.0,0.0,62,0.00,,---,0.05,VWS V14.01,2013-07-26 21:37:00,
2013-07-26 17:42:00,76.7,60.8,29.94,North,359,0.0,0.0,58,0.00,,---,0.05,VWS V14.01,2013-07-26 21:42:00,
2013-07-26 17:47:00,77.2,60.6,29.94,North,359,0.0,0.0,57,0.00,,---,0.05,VWS V14.01,2013-07-26 21:47:00,
2013-07-26 17:52:00,77.0,59.8,29.94,NNE,32,0.0,0.0,55,47.22,,---,0.05,VWS V14.01,2013-07-26 21:52:00,
2013-07-26 17:57:00,76.0,58.4,29.94,NNE,32,0.0,0.0,54,0.00,,---,0.05,VWS V14.01,2013-07-26 21:57:00,
2013-07-26 18:02:00,78.0,61.0,29.94,NNE,32,0.0,0.0,56,0.00,,---,0.05,VWS V14.01,2013-07-26 22:02:00,
2013-07-26 18:07:00,77.5,60.7,29.94,NNE,32,0.0,0.0,56,0.00,,---,0.05,VWS V14.01,2013-07-26 22:07:00,
2013-07-26 18:12:00,78.0,61.9,29.94,NNE,32,0.0,0.0,58,0.00,,---,0.05,VWS V14.01,2013-07-26 22:12:00,
2013-07-26 18:17:00,78.2,62.1,29.94,NNE,32,0.0,0.0,58,0.00,,---,0.05,VWS V14.01,2013-07-26 22:17:00,
2013-07-26 18:22:00,76.8,60.7,29.94,NNE,32,0.0,0.0,58,0.00,,---,0.05,VWS V14.01,2013-07-26 22:22:00,
2013-07-26 18:27:00,77.9,60.4,29.95,North,359,0.0,0.0,55,0.00,,---,0.05,VWS V14.01,2013-07-26 22:27:00,
2013-07-26 18:32:00,76.7,58.6,29.95,North,359,0.0,0.0,54,0.00,,---,0.05,VWS V14.01,2013-07-26 22:32:00,
2013-07-26 18:37:00,76.5,58.4,29.95,North,359,0.0,0.0,54,0.00,,---,0.05,VWS V14.01,2013-07-26 22:37:00,
2013-07-26 18:42:00,77.4,59.5,29.95,North,359,0.0,0.0,54,0.00,,---,0.05,VWS V14.01,2013-07-26 22:42:00,
2013-07-26 18:47:00,76.1,57.9,29.94,North,359,0.0,0.0,53,0.00,,---,0.05,VWS V14.01,2013-07-26 22:47:00,
2013-07-26 18:52:00,77.7,61.0,29.94,North,359,0.0,0.0,56,47.22,,---,0.05,VWS V14.01,2013-07-26 22:52:00,
2013-07-26 18:57:00,77.4,59.8,29.95,North,359,0.0,0.0,55,0.00,,---,0.05,VWS V14.01,2013-07-26 22:57:00,
2013-07-26 19:02:00,76.3,58.5,29.95,North,359,0.0,0.0,54,0.00,,---,0.05,VWS V14.01,2013-07-26 23:02:00,
2013-07-26 19:07:00,77.0,60.0,29.95,North,359,0.0,0.0,56,0.00,,---,0.05,VWS V14.01,2013-07-26 23:07:00,
2013-07-26 19:12:00,77.4,61.1,29.95,North,359,0.0,0.0,57,0.00,,---,0.05,VWS V14.01,2013-07-26 23:12:00,
2013-07-26 19:17:00,75.9,60.4,29.95,North,359,0.0,0.0,59,0.00,,---,0.05,VWS V14.01,2013-07-26 23:17:00,
2013-07-26 19:22:00,76.1,61.3,29.95,North,359,0.0,0.0,60,0.00,,---,0.05,VWS V14.01,2013-07-26 23:22:00,
2013-07-26 19:27:00,75.1,60.7,29.95,North,359,0.0,0.0,61,0.00,,---,0.05,VWS V14.01,2013-07-26 23:27:00,
2013-07-26 19:32:00,75.0,61.0,29.95,North,359,0.0,0.0,62,0.00,,---,0.05,VWS V14.01,2013-07-26 23:32:00,
2013-07-26 19:37:00,75.4,61.7,29.95,North,359,0.0,0.0,62,0.00,,---,0.05,VWS V14.01,2013-07-26 23:37:00,
2013-07-26 19:42:00,74.9,61.4,29.95,North,359,0.0,0.0,63,0.00,,---,0.05,VWS V14.01,2013-07-26 23:42:00,
2013-07-26 19:47:00,74.7,61.5,29.95,North,359,0.0,0.0,64,0.00,,---,0.05,VWS V14.01,2013-07-26 23:47:00,
2013-07-26 19:52:00,74.6,62.0,29.95,North,359,0.0,0.0,65,47.27,,---,0.05,VWS V14.01,2013-07-26 23:52:00,
2013-07-26 19:57:00,74.3,63.1,29.95,North,359,0.0,0.0,68,0.00,,---,0.05,VWS V14.01,2013-07-26 23:57:00,
2013-07-26 20:02:00,72.7,62.4,29.95,North,359,0.0,0.0,70,0.00,,---,0.05,VWS V14.01,2013-07-27 00:02:00,
2013-07-26 20:07:00,72.3,62.8,29.95,SSE,150,0.0,0.0,72,0.00,,---,0.05,VWS V14.01,2013-07-27 00:07:00,
2013-07-26 20:12:00,72.0,63.2,29.95,SSE,150,0.0,0.0,74,0.00,,---,0.05,VWS V14.01,2013-07-27 00:12:00,
2013-07-26 20:17:00,71.7,63.2,29.95,SSE,150,0.0,0.0,74,0.00,,---,0.05,VWS V14.01,2013-07-27 00:17:00,
2013-07-26 20:22:00,71.3,63.1,29.95,SSE,150,0.0,0.0,75,0.00,,---,0.05,VWS V14.01,2013-07-27 00:22:00,
2013-07-26 20:27:00,72.3,64.3,29.95,SSE,150,0.0,0.0,76,0.00,,---,0.05,VWS V14.01,2013-07-27 00:27:00,
2013-07-26 20:32:00,71.4,63.6,29.95,SSE,150,0.0,0.0,76,0.00,,---,0.05,VWS V14.01,2013-07-27 00:32:00,
2013-07-26 20:37:00,71.0,63.3,29.96,SSE,150,0.0,0.0,77,0.00,,---,0.05,VWS V14.01,2013-07-27 00:37:00,
2013-07-26 20:42:00,70.9,63.2,29.96,SSE,150,0.0,0.0,77,0.00,,---,0.05,VWS V14.01,2013-07-27 00:42:00,
2013-07-26 20:47:00,71.5,63.6,29.96,SSE,150,0.0,0.0,76,0.00,,---,0.05,VWS V14.01,2013-07-27 00:47:00,
2013-07-26 20:52:00,71.2,63.2,29.96,SSE,150,0.0,0.0,76,47.26,,---,0.05,VWS V14.01,2013-07-27 00:52:00,
2013-07-26 20:57:00,72.0,64.0,29.96,SSE,150,0.0,0.0,76,0.00,,---,0.05,VWS V14.01,2013-07-27 00:57:00,
2013-07-26 21:02:00,71.4,63.5,29.96,SSE,150,0.0,0.0,76,0.00,,---,0.05,VWS V14.01,2013-07-27 01:02:00,
2013-07-26 21:07:00,71.4,63.7,29.97,SSE,150,0.0,0.0,77,0.00,,---,0.05,VWS V14.01,2013-07-27 01:07:00,
2013-07-26 21:12:00,71.0,63.5,29.96,SSE,150,0.0,0.0,77,0.00,,---,0.05,VWS V14.01,2013-07-27 01:12:00,
2013-07-26 21:17:00,70.5,63.2,29.97,SSE,150,0.0,0.0,78,0.00,,---,0.05,VWS V14.01,2013-07-27 01:17:00,
2013-07-26 21:22:00,70.7,63.5,29.97,SSE,150,0.0,0.0,78,0.00,,---,0.05,VWS V14.01,2013-07-27 01:22:00,
2013-07-26 21:27:00,70.8,63.9,29.97,SSE,150,0.0,0.0,79,0.00,,---,0.05,VWS V14.01,2013-07-27 01:27:00,
2013-07-26 21:32:00,69.2,62.5,29.97,SSE,150,0.0,0.0,79,0.00,,---,0.05,VWS V14.01,2013-07-27 01:32:00,
2013-07-26 21:33:00,69.7,63.0,29.97,SSE,150,0.0,0.0,79,0.00,,---,0.05,VWS V14.01,2013-07-27 01:33:00,
2013-07-26 21:38:00,69.5,63.1,29.97,SSE,150,0.0,0.0,80,0.00,,---,0.05,VWS V14.01,2013-07-27 01:38:00,
2013-07-26 21:43:00,69.6,63.2,29.97,SSE,150,0.0,0.0,80,0.00,,---,0.05,VWS V14.01,2013-07-27 01:43:00,
2013-07-26 21:48:00,69.5,63.2,29.97,SSE,150,0.0,0.0,80,0.00,,---,0.05,VWS V14.01,2013-07-27 01:48:00,
2013-07-26 21:52:00,69.9,63.6,29.98,SSE,150,0.0,0.0,80,0.00,,---,0.05,VWS V14.01,2013-07-27 01:52:00,
2013-07-26 21:57:00,69.3,63.2,29.98,SSE,150,0.0,0.0,81,0.00,,---,0.05,VWS V14.01,2013-07-27 01:57:00,
2013-07-26 22:02:00,69.4,63.5,29.98,SSE,150,0.0,0.0,82,0.00,,---,0.05,VWS V14.01,2013-07-27 02:02:00,
2013-07-26 22:07:00,68.2,62.4,29.98,SSE,150,0.0,0.0,82,0.00,,---,0.05,VWS V14.01,2013-07-27 02:07:00,
2013-07-26 22:12:00,68.3,62.7,29.98,SSE,150,0.0,0.0,82,0.00,,---,0.05,VWS V14.01,2013-07-27 02:12:00,
2013-07-26 22:17:00,68.8,63.2,29.98,SSE,150,0.0,0.0,82,0.00,,---,0.05,VWS V14.01,2013-07-27 02:17:00,
2013-07-26 22:22:00,68.8,63.2,29.98,SSE,150,0.0,0.0,82,0.00,,---,0.05,VWS V14.01,2013-07-27 02:22:00,
2013-07-26 22:27:00,68.6,63.1,29.98,SSE,150,0.0,0.0,83,0.00,,---,0.05,VWS V14.01,2013-07-27 02:27:00,
2013-07-26 22:32:00,68.1,62.8,29.98,SSE,150,0.0,0.0,83,0.00,,---,0.05,VWS V14.01,2013-07-27 02:32:00,
2013-07-26 22:37:00,67.1,62.0,29.98,North,359,0.0,4.6,84,0.00,,---,0.05,VWS V14.01,2013-07-27 02:37:00,
2013-07-26 22:42:00,68.0,63.0,29.98,North,359,0.0,0.0,84,0.00,,---,0.05,VWS V14.01,2013-07-27 02:42:00,
2013-07-26 22:47:00,68.8,63.9,29.98,South,176,0.0,3.3,84,0.00,,---,0.05,VWS V14.01,2013-07-27 02:47:00,
2013-07-26 22:52:00,67.3,62.6,29.98,South,176,0.0,0.0,85,55.01,,---,0.05,VWS V14.01,2013-07-27 02:52:00,
2013-07-26 22:57:00,67.9,63.4,29.98,South,179,0.0,0.0,85,0.00,,---,0.05,VWS V14.01,2013-07-27 02:57:00,
2013-07-26 23:02:00,67.8,63.4,29.98,South,179,0.0,0.0,86,0.00,,---,0.05,VWS V14.01,2013-07-27 03:02:00,
2013-07-26 23:07:00,67.3,62.9,29.98,South,179,0.0,0.0,86,0.00,,---,0.05,VWS V14.01,2013-07-27 03:07:00,
2013-07-26 23:12:00,67.3,63.1,29.98,South,179,0.0,0.0,86,0.00,,---,0.05,VWS V14.01,2013-07-27 03:12:00,
2013-07-26 23:17:00,67.1,63.1,29.98,South,179,0.0,0.0,87,0.00,,---,0.05,VWS V14.01,2013-07-27 03:17:00,
2013-07-26 23:22:00,66.9,63.0,29.98,South,179,0.0,4.3,87,0.00,,---,0.05,VWS V14.01,2013-07-27 03:22:00,
2013-07-26 23:27:00,67.0,63.4,29.98,South,179,0.0,0.0,88,0.00,,---,0.05,VWS V14.01,2013-07-27 03:27:00,
2013-07-26 23:32:00,67.0,63.6,29.99,South,179,0.0,0.0,89,0.00,,---,0.05,VWS V14.01,2013-07-27 03:32:00,
2013-07-26 23:37:00,66.4,63.2,29.98,South,179,0.0,0.0,89,0.00,,---,0.05,VWS V14.01,2013-07-27 03:37:00,
2013-07-26 23:42:00,66.8,63.8,29.99,South,179,7.9,7.9,90,0.00,,---,0.05,VWS V14.01,2013-07-27 03:42:00,
2013-07-26 23:47:00,66.8,64.0,29.99,ESE,120,0.0,0.0,91,0.00,,---,0.05,VWS V14.01,2013-07-27 03:47:00,
2013-07-26 23:52:00,67.4,64.8,29.99,ESE,120,0.0,0.0,91,0.00,,---,0.05,VWS V14.01,2013-07-27 03:52:00,
2013-07-26 23:57:00,66.6,64.1,29.99,WSW,255,0.0,0.0,92,0.00,,---,0.05,VWS V14.01,2013-07-27 03:57:00,